Tracking 29782 objects as of 13-Oct-2024
HD Live streaming from Space Station
objects crossing your sky now

COSMOS 1275 DEB

Track COSMOS 1275 DEB now!
10-day predictions


NORAD ID: 39963
Int'l Code: 1981-053PF
Perigee: 922.4 km
Apogee: 1,118.5 km
Inclination: 83.0 °
Period: 105.4 minutes
Semi major axis: 7391 km
RCS: 0.01 m2 (small)
Launch date: April 25, 1981
Source: Commonwealth of Independent States (former USSR) (CIS)
Launch site: PLESETSK MISSILE AND SPACE COMPLEX (PKMTR)

Note: This is SATELLITE DEBRIS
Your satellite tracking list
Your tracking list is empty




NASA's NSSDC Master Catalog

Two Line Element Set (TLE):
1 39963U 81053NZ  24285.76817270  .00003934  00000-0  44761-2 0  9999
2 39963  83.0040 103.0746 0132613 351.6683   8.2264 13.66179454515364
Source of the keplerian elements: AFSPC